Regional Weather Roundup
Issued by NWS Columbia, SC

Home | Current Version | Previous Version | Text Only | Print | Product List | Glossary On
Versions: 1 2 3 4 5 6 7 8 9 10 11 12 13 14 15 16 17 18 19 20 21 22 23 24 25 26 27 28 29 30 31 32 33 34 35 36 37 38 39 40 41 42 43 44 45 46 47 48 49 50
000
ASUS42 KCAE 071310
RWRCAE
REGIONAL WEATHER ROUNDUP
NATIONAL WEATHER SERVICE COLUMBIA SC
800 AM EST SUN FEB 07 2016

NOTE: "FAIR" INDICATES FEW OR NO CLOUDS BELOW 12,000 FEET WITH NO
SIGNIFICANT WEATHER AND/OR OBSTRUCTIONS TO VISIBILITY.

NOT ALL STATIONS ARE QUALITY CONTROLLED BY THE NATIONAL
WEATHER SERVICE. USE DATA WITH CAUTION...ESPECIALLY
DEWPOINT OBSERVATIONS.

SCZ001>056-GAZ040-063>065-077-071400-
...UPSTATE SOUTH CAROLINA...

CITY           SKY/WX    TMP DP  RH WIND       PRES   REMARKS
ANDERSON       PTCLDY    31  25  78 NW6       30.12R WCI  25
LIBERTY        MOSUNNY   24  22  92 CALM      30.10R
CLEMSON        CLOUDY    36  20  52 NW5       30.12R WCI  32
GREENVILLE     CLEAR     39  17  41 N12       30.10R WCI  32
GREENWOOD      CLOUDY    36  20  52 N5        30.11R WCI  32
GREER          CLEAR     34  20  56 N3        30.09R
ROCK HILL      CLOUDY    39  23  52 NE8       30.08S WCI  33
LAURENS        CLOUDY    36  23  60 N6        30.08S WCI  31


...CENTRAL SOUTH CAROLINA...

CITY           SKY/WX    TMP DP  RH WIND       PRES   REMARKS
COLUMBIA APT   CLOUDY    43  22  43 N7        30.04F
COLUMBIA OWENS CLOUDY    43  25  49 VRB5      30.05F
MCENTIRE ANGB  CLOUDY    40  27  59 N10       30.03F WCI  34
ORANGEBURG     CLOUDY    40  30  67 N9        30.02S WCI  34
SUMTER SHAW    CLOUDY    39  28  64 N13       30.00S WCI  32
NEWBERRY       CLOUDY    37  23  56 N7        30.10F WCI  32
AIKEN          PTSUNNY   37  23  56 NW7       30.08S WCI  32
BARNWELL       CLOUDY    43  32  65 NW6       30.04F
MANNING        FAIR      36  32  87 N13G20    30.00R WCI  27
CAMDEN         CLOUDY    39  39 100 N8        30.05S WCI  34
LANCASTER      CLOUDY    39  19  45 N6        30.07S WCI  35
WINNSBORO      CLOUDY    37  25  60 N8        30.04F WCI  31


...EASTERN AND COASTAL SOUTH CAROLINA...

CITY           SKY/WX    TMP DP  RH WIND       PRES   REMARKS
MYRTLE BEACH   RAIN      39  30  70 NE18G24   29.95F FOG     WCI  30
N MYRTLE BCH   LGT RAIN  37  35  92 N14G23    29.94F WCI  28
CONWAY         LGT RAIN  36  34  93 N12G23    29.96F WCI  27
MARION         LGT RAIN  37  34  87 N15G21    30.00F WCI  28
HARTSVILLE     CLOUDY    37  28  70 N8G25     30.03R WCI  31
FLORENCE       LGT RAIN  37  34  89 N14       30.00F WCI  28
DARLINGTON     CLOUDY    37  30  75 N13       30.05S WCI  29
CHARLESTON APT LGT RAIN  40  37  89 N15       29.93F WCI  32
MOUNT PLEASANT CLOUDY    39  37  93 N8        29.93F WCI  34
WALTERBORO     CLOUDY    39  37  93 NW6       30.00F WCI  35
BEAUFORT       LGT RAIN  40  37  89 NW13      29.99F WCI  32


...EASTERN GEORGIA...

CITY           SKY/WX    TMP DP  RH WIND       PRES   REMARKS
AUGUSTA BUSH F CLOUDY    40  26  57 N12       30.07F WCI  33
AUGUSTA DANIEL CLOUDY    40  22  48 NW9       30.07F WCI  34
THOMSON        CLOUDY    36  30  80 NW6       30.14S WCI  31
WASHINGTON     FAIR      36  30  80 NW6       30.10F WCI  31
CLAXTON        CLOUDY    42  36  76 NW8       30.05S
SYLVANIA       CLOUDY    41  35  78 N5        30.05S
STATESBORO     CLOUDY    44  30  58 N8        30.04F
SAVANNAH       CLOUDY    39  36  89 NW13      30.02F WCI  31


...SOUTHERN NORTH CAROLINA...

CITY           SKY/WX    TMP DP  RH WIND       PRES   REMARKS
CHARLOTTE      CLOUDY    38  17  42 N8        30.09S WCI  32
MONROE         MOCLDY    39  20  46 N12       30.06R WCI  32
WADESBORO      CLOUDY    40  21  45 N7        30.06F
ROCKINGHAM     CLOUDY    39  26  61 N9        30.05F WCI  32
RUTHERFORDTON  CLOUDY    33  20  59 CALM      30.11S
ASHEVILLE      CLEAR     30  16  56 N12       30.10R WCI  20

$$



USA.gov is the U.S. government's official web portal to all federal, state and local government web resources and services.